Preview of NWS' New Version of Forecast
This preview is not operational and should not be used for support decisions.

Regional Weather Roundup (RWR)

Issued by Gray - Portland, ME (GYX)

                            
000
ASUS41 KGYX 201610
RWRGYX
WEATHER ROUNDUP FOR MAINE AND NEW HAMPSHIRE
NATIONAL WEATHER SERVICE GRAY ME
1200 PM EDT TUE AUG 20 2019

MEZ002-005-006-010-012-015-018-020-021-024-026-027-029-201700-
MAINE
  
CITY           SKY/WX    TMP DP  RH WIND       PRES   REMARKS
PORTLAND       FAIR      83  52  34 NW9       30.06F                  
SANFORD        FAIR      81  60  48 N5        30.07F                  
BAR HARBOR     FAIR      78  54  43 NW5       30.04S                  
WISCASSET      FAIR      81  53  37 CALM      30.07F                  
ROCKLAND       FAIR      79  56  45 VRB3      30.05F                  
FRYEBURG       FAIR      80  59  48 VRB5      30.08F                  
LEWISTONAUBURN FAIR      78  55  44 CALM      30.08S                  
AUGUSTA        FAIR      78  54  43 N3        30.07F                  
WATERVILLE     FAIR      78  52  40 N7        30.05S                  
BANGOR         FAIR      77  56  48 W5        30.05S                  
GREENVILLE       N/A     72  51  47 NW7       30.07F                  
MILLINOCKET    FAIR      78  52  40 NW7       30.05F                  
HOULTON        FAIR      76  49  38 VRB7      30.01F                  
PRESQUE ISLE   FAIR      76  53  44 VRB6      30.01F                  
FRENCHVILLE    FAIR      74  53  48 W12       29.99F                  
CARIBOU        FAIR      77  53  43 SW9       29.99F                  
$$

NHZ002-005-008-009-011-012-014-201700-
NEW HAMPSHIRE
  
CITY           SKY/WX    TMP DP  RH WIND       PRES   REMARKS
PORTSMOUTH     MOSUNNY   82  62  49 W5        30.05F                  
ROCHESTER      FAIR      83  60  45 CALM      30.07F                  
NASHUA         FAIR      83  59  44 W6        30.08F                  
MANCHESTER     FAIR      83  55  38 CALM      30.06F                  
CONCORD        FAIR      82  54  37 W6        30.08F                  
LACONIA        FAIR      80  54  40 VRB3      30.09F                  
PLYMOUTH       FAIR      78  54  42 W3        30.08F                  
BERLIN         FAIR      77  52  41 N5        30.10F                  
WHITEFIELD     FAIR      76  48  37 CALM      30.10F                  
JAFFREY        FAIR      79  54  41 CALM      30.13S                  
KEENE          FAIR      79  57  46 CALM      30.10F                  
LEBANON        FAIR      80  55  42 VRB3      30.09F                  
MT WASHINGTON  MOSUNNY   55  39  54 VRB6        N/A                   
$$

VTZ005-007-008-201700-
VERMONT
  
CITY           SKY/WX    TMP DP  RH WIND       PRES   REMARKS
ST JOHNSBURY     N/A     76  49  38 MISG      30.08F                  
MONTPELIER     FAIR      74  51  44 CALM      30.15F                  
BURLINGTON     FAIR      79  51  37 S3        30.08F                  
$$

MAZ007-012-024-CTZ003-RIZ002-NYZ038-NYZ072-201700-
SOUTHERN NEW ENGLAND AND NY
  
CITY           SKY/WX    TMP DP  RH WIND       PRES   REMARKS
BOSTON         FAIR      82  61  48 SE8       30.07S                  
WORCESTER      FAIR      79  57  46 CALM      30.12F                  
NANTUCKET      FAIR      81  65  58 N10       30.07S                  
PROVIDENCE     FAIR      83  60  45 NW6       30.08F                  
HARTFORD       FAIR      83  52  34 VRB3      30.10S                  
ALBANY         FAIR      82  57  42 SW5       30.11F                  
NEW YORK CITY  FAIR      84  62  47 E8        30.09F                  
$$

ANZ081-ANZ082-ANZ150-NHZ014-MEZ023>029-201700-
COASTAL MARINE OBSERVATIONS
  
STATION/POSITION TIME  TEMP    WIND        PRES    WAVE
                       AIR SEA DIR/SP/G            HT/PER
                 (UTC) (F)     (DEG/KT/KT) (MB)    (FT/S)
MATINICUS ROCK   1550   68                 1017.4S
ISLE OF SHOALS   1500   75      10/  6/  6 1017.8R
JEFFREYS LEDGE   1538      67                N/A     2/ 8
CASHES LEDGE BUO 1550   64 63  330/  6/  8 1018.0F   2/ 8
GEORGES BANK BUO 1550   70 72  300/ 10/ 12 1017.9R   3/ 7
$$

.............KEY..............
   WCI - WIND CHILL
   TC  - TEMPERATURE IN CELSIUS
   VSB - VISIBILITY IN MILES
   HX  - HEAT INDEX
   FAIR- INDICATES FEW OR NO CLOUDS BELOW 12,000 FT, WITH NO 
         SIGNIFICANT WEATHER AND/OR OBSTRUCTIONS TO VISIBILITY.